Location: Croissy-Beaubourg
(48.8283°N, 2.6696°E)
Time: 21:22:04
(UTC+00:00)

Cosmos 2082 - Pass Details

Date: 23 August 2022
Orbit: 832 x 856 km, 71.0° (Epoch: 28 September)

Event Time Altitude Azimuth Distance (km) Brightness Sun altitude
Rises 03:53:09 0° 319° (NW) 3,415 6.7 -9.8°
Reaches altitude 10° 03:56:26 10° 300° (WNW) 2,479 5.8 -9.3°
Maximum altitude 03:59:57 17° 262° (W) 2,026 5.1 -8.8°
Drops below altitude 10° 04:03:27 10° 223° (SW) 2,477 5.5 -8.3°
Enters shadow 04:04:53 - 213° (SSW) 2,846 5.9 -8.1°
